DW6794 Weather Reports


Display with metric or nautical units.
time (UTC)temp
F
wind
direction
speed
MPH
gust
MPH
rain 1hr
in
rain 24hr
in
rain mn
in
humidity
%
barometer
mb
20170628135352 66 69 0.0 1.0 0.00 0.00 0.00 75 1019.6
20170628134353 66 60 0.0 0.0 0.00 0.00 0.00 76 1019.6
20170628133352 65 60 0.0 0.0 0.00 0.00 0.00 77 1019.6
20170628131352 63 44 0.0 0.0 0.00 0.00 0.00 78 1019.6
20170628125353 61 43 0.0 0.0 0.00 0.00 0.00 80 1019.0
20170628122352 59 26 0.0 0.0 0.00 0.00 0.00 81 1018.5
20170628121352 58 343 0.0 0.0 0.00 0.00 0.00 82 1018.4
20170628105353 48 252 0.0 0.0 0.00 0.00 0.00 82 1018.4
20170628102353 48 252 0.0 0.0 0.00 0.00 0.00 80 1018.3
20170628101353 48 252 0.0 0.0 0.00 0.00 0.00 80 1018.2
20170628091353 48 252 0.0 0.0 0.00 0.00 0.00 79 1017.4
20170628084353 49 252 0.0 0.0 0.00 0.00 0.00 78 1017.4
20170628075353 50 252 0.0 0.0 0.00 0.00 0.00 78 1017.4
20170628074353 50 252 0.0 0.0 0.00 0.00 0.00 78 1017.4
20170628064354 51 252 0.0 0.0 0.00 0.00 0.00 75 1017.3
20170628062353 51 252 0.0 0.0 0.00 0.00 0.00 73 1017.3
20170628060354 52 252 0.0 0.0 0.00 0.00 0.00 73 1017.3
20170628054353 53 252 0.0 0.0 0.00 0.00 0.00 75 1017.1
20170628050353 54 252 0.0 0.0 0.00 0.00 0.00 70 1017.3
20170628045354 54 252 0.0 0.0 0.00 0.00 0.00 70 1017.3
20170628043354 55 252 0.0 0.0 0.00 0.00 0.00 69 1017.3
20170628035354 56 252 0.0 0.0 0.00 0.00 0.00 67 1016.8
20170628034354 56 252 0.0 0.0 0.00 0.00 0.00 68 1016.8
20170628033354 57 252 0.0 0.0 0.00 0.00 0.00 67 1016.7
20170628031354 57 252 0.0 0.0 0.00 0.00 0.00 64 1016.7
20170628025354 58 252 0.0 0.0 0.00 0.00 0.00 63 1016.3
20170628024354 59 252 0.0 0.0 0.00 0.00 0.00 62 1016.2
20170628021354 60 252 0.0 0.0 0.00 0.00 0.00 65 1015.7
20170628020355 61 252 0.0 0.0 0.00 0.00 0.00 61 1015.6
20170628015354 62 252 0.0 0.0 0.00 0.00 0.00 60 1015.6
20170628013354 63 252 0.0 0.0 0.00 0.00 0.00 57 1015.2
20170628004354 69 252 0.0 0.0 0.00 0.00 0.00 50 1015.0
20170628003355 70 252 0.0 0.0 0.00 0.00 0.00 49 1015.0
20170627231355 76 252 1.0 5.0 0.00 0.00 0.00 43 1014.5
20170627225355 76 202 2.0 3.0 0.00 0.00 0.00 43 1014.5
20170627223355 76 236 1.0 3.0 0.00 0.00 0.00 43 1014.5
20170627222355 77 252 2.0 5.0 0.00 0.00 0.00 43 1014.5
20170627221355 77 265 3.0 5.0 0.00 0.00 0.00 44 1014.4
20170627211355 75 259 1.0 6.0 0.00 0.00 0.00 46 1015.0
20170627210355 76 259 2.0 6.0 0.00 0.00 0.00 46 1015.1
20170627205356 77 257 4.0 7.0 0.00 0.00 0.00 46 1015.2
20170627203355 76 162 3.0 6.0 0.00 0.00 0.00 49 1015.4
20170627200355 74 201 1.0 6.0 0.00 0.00 0.00 50 1015.5
20170627194355 75 261 3.0 10.0 0.00 0.00 0.00 52 1015.6
20170627193356 75 315 1.0 3.0 0.00 0.00 0.00 54 1015.6
20170627192355 74 311 2.0 3.0 0.00 0.00 0.00 55 1015.6
20170627191355 73 248 1.0 6.0 0.00 0.00 0.00 55 1015.8
20170627185355 73 169 2.0 6.0 0.00 0.00 0.00 57 1015.9
20170627182355 72 246 0.0 0.0 0.00 0.00 0.00 62 1016.2
20170627180355 72 9 0.0 0.0 0.00 0.00 0.00 62 1016.5
20170627175356 72 15 0.0 0.0 0.00 0.00 0.00 62 1016.5
20170627174356 72 15 0.0 0.0 0.00 0.00 0.00 63 1016.5
20170627172356 72 15 0.0 0.0 0.00 0.00 0.00 64 1016.5
20170627162356 71 15 0.0 0.0 0.00 0.00 0.00 66 1016.6
20170627160356 71 83 0.0 0.0 0.00 0.00 0.00 68 1016.5
20170627155356 71 85 0.0 0.0 0.00 0.00 0.00 68 1016.5
20170627153355 70 85 0.0 0.0 0.00 0.00 0.00 70 1016.9
20170627152356 70 71 0.0 0.0 0.00 0.00 0.00 70 1016.6
20170627151356 70 71 0.0 0.0 0.00 0.00 0.00 71 1016.5
20170627143356 70 251 0.0 0.0 0.00 0.00 0.00 74 1016.5